Home > Weather > Denver > Past weeks

Flag for U.S.A. Weather for the Past 2 Weeks in Denver, Colorado, U.S.A.

Now
34 °F

Passing clouds.


Feels Like: 26 °F
Forecast: 35 / 57 °F
Wind: 10 mph from Southeast

Location: Buckley Air Force Base

Current Time: Feb 12, 2016 at 3:47:54 AM

Latest Report: Feb 12, 2016 at 2:58 AM


Visibility: 10 mi

Pressure: 30.16 "Hg (24.73 "Hg at 1593m altitude)

Humidity: 68%

Dew point: 24 °F

Location of DenverLocation

Historic Weather in Denver — Graph

°F

Denver Temperature Yesterday

Maximum temperature yesterday: 65 °F (at 1:58 PM)
Minimum temperature yesterday: 35 °F (at 4:58 AM)
Average temperature yesterday: 44 °F

High & Low Weather Summary for the Past Weeks

 TemperatureHumidityPressure
High65 °F (Feb 10, 2:58 PM)100% (Jan 30, 7:01 PM)30.50 "Hg (Jan 30, 7:01 PM)
Low6 °F (Feb 3, 10:58 PM)14% (Feb 10, 2:58 PM)29.33 "Hg (Jan 30, 1:58 PM)
Average33 °F58%30.07 "Hg
* Reported Jan 28 1:58 AM — Feb 12 1:58 AM, Denver, Weather by CustomWeather, © 2016

Note: Actual official high and low records may vary slightly from our data, if they occured in-between our weather recording intervals... More about our weather records

Advertising

Denver Weather History for the Previous 24 Hours

 ConditionsComfort  
Time TempWeatherWind HumidityBarometerVisibility
1:58 AM
Fri, Feb 12
39 °FPassing clouds.17 mph55%30.15 "Hg10 mi
12:58 AM40 °FPassing clouds.16 mph52%30.14 "Hg10 mi
11:58 PM
Thu, Feb 11
37 °FPassing clouds.13 mph63%30.17 "Hg10 mi
10:58 PM38 °FPassing clouds.15 mph59%30.18 "Hg10 mi
9:58 PM37 °FPassing clouds.10 mph62%30.22 "Hg10 mi
8:58 PM38 °FPassing clouds.10 mph59%30.24 "Hg10 mi
7:58 PM39 °FPassing clouds.10 mph59%30.24 "Hg10 mi
6:58 PM39 °FPassing clouds.13 mph65%30.25 "Hg10 mi
5:58 PM42 °FPassing clouds.13 mph57%30.22 "Hg10 mi
4:58 PM49 °FPartly sunny.8 mph40%30.14 "Hg10 mi
3:58 PM63 °FPartly sunny.8 mph23%30.06 "Hg10 mi
1:58 PM65 °FPartly sunny.18 mph20%30.01 "Hg10 mi
12:58 PM64 °FPartly sunny.17 mph19%30.01 "Hg10 mi
11:58 AM62 °FBroken clouds.16 mph18%30.02 "Hg10 mi
10:58 AM58 °FBroken clouds.9 mph18%30.05 "Hg10 mi
9:58 AM50 °FBroken clouds.8 mph30%30.07 "Hg10 mi
8:58 AM44 °FBroken clouds.8 mph31%30.10 "Hg10 mi
7:58 AM40 °FBroken clouds.12 mph38%30.10 "Hg10 mi
6:58 AM36 °FScattered clouds.10 mph42%30.08 "Hg10 mi
5:58 AM36 °FPassing clouds.9 mph42%30.09 "Hg10 mi
4:58 AM35 °FPassing clouds.12 mph43%30.09 "Hg10 mi
3:58 AM36 °FPassing clouds.13 mph42%30.08 "Hg10 mi
Weather by CustomWeather, © 2016

See weather overviewHow to use our weather pages